| time (UTC) | temp C | wind direction | speed KPH | gust KPH | rain 1hr cm | rain 24hr cm | rain mn cm | humidity % | barometer mb |
| 20260505061504 | 4 | 3 | 22.5 | 32.2 | 0.03 | 0.36 | 0.08 | 96 | 1014.0 |
| 20260505060004 | 4 | 4 | 25.7 | 38.6 | 0.03 | 0.36 | 0.08 | 96 | 1013.8 |
| 20260505054525 | 4 | 3 | 25.7 | 38.6 | 0.03 | 0.36 | 0.08 | 96 | 1013.5 |
| 20260505053004 | 5 | 359 | 25.7 | 35.4 | 0.00 | 0.33 | 0.05 | 96 | 1013.4 |
| 20260505051504 | 5 | 357 | 24.1 | 32.2 | 0.00 | 0.33 | 0.05 | 96 | 1013.1 |
| 20260505041525 | 5 | 285 | 11.3 | 19.3 | 0.00 | 0.33 | 0.05 | 97 | 1012.1 |
| 20260505040004 | 5 | 291 | 9.7 | 19.3 | 0.00 | 0.33 | 0.05 | 97 | 1012.1 |
| 20260505034504 | 5 | 289 | 12.9 | 19.3 | 0.00 | 0.33 | 0.05 | 96 | 1012.2 |
| 20260505033025 | 5 | 287 | 11.3 | 20.9 | 0.00 | 0.33 | 0.05 | 96 | 1012.1 |
| 20260505031525 | 5 | 286 | 9.7 | 17.7 | 0.00 | 0.33 | 0.05 | 96 | 1012.1 |
| 20260505030004 | 5 | 285 | 6.4 | 16.1 | 0.00 | 0.33 | 0.05 | 96 | 1012.1 |
| 20260505024525 | 5 | 287 | 6.4 | 16.1 | 0.00 | 0.33 | 0.05 | 97 | 1012.1 |
| 20260505023004 | 6 | 287 | 17.7 | 24.1 | 0.00 | 0.33 | 0.05 | 97 | 1012.0 |
| 20260505021525 | 5 | 284 | 11.3 | 22.5 | 0.00 | 0.33 | 0.05 | 97 | 1012.0 |
| 20260505020004 | 6 | 282 | 8.0 | 19.3 | 0.00 | 0.33 | 0.05 | 97 | 1012.0 |
| 20260505014504 | 6 | 283 | 9.7 | 19.3 | 0.00 | 0.33 | 0.05 | 97 | 1012.0 |
| 20260505013004 | 6 | 286 | 12.9 | 24.1 | 0.00 | 0.33 | 0.05 | 97 | 1011.8 |
| 20260505011504 | 6 | 287 | 14.5 | 22.5 | 0.00 | 0.33 | 0.05 | 97 | 1011.8 |
| 20260505010025 | 6 | 288 | 17.7 | 25.7 | 0.00 | 0.33 | 0.05 | 96 | 1011.8 |
| 20260505004525 | 6 | 291 | 14.5 | 22.5 | 0.00 | 0.33 | 0.05 | 97 | 1011.9 |
| 20260505003004 | 6 | 291 | 11.3 | 17.7 | 0.00 | 0.33 | 0.05 | 97 | 1012.0 |
| 20260505001504 | 6 | 296 | 6.4 | 11.3 | 0.03 | 0.33 | 0.05 | 96 | 1012.1 |
| 20260505000004 | 7 | 306 | 6.4 | 11.3 | 0.05 | 0.33 | 0.05 | 97 | 1012.1 |
| 20260504234504 | 7 | 305 | 4.8 | 6.4 | 0.05 | 0.33 | 0.05 | 97 | 1012.1 |
| 20260504233003 | 7 | 298 | 3.2 | 4.8 | 0.08 | 0.33 | 0.05 | 97 | 1012.1 |
| 20260504231504 | 7 | 0 | 0.0 | 0.0 | 0.05 | 0.30 | 0.03 | 96 | 1012.1 |
| 20260504230005 | 7 | 307 | 3.2 | 6.4 | 0.03 | 0.28 | 0.00 | 96 | 1012.1 |
| 20260504224525 | 7 | 297 | 4.8 | 12.9 | 0.03 | 0.28 | 0.28 | 96 | 1012.1 |
| 20260504223004 | 7 | 0 | 0.0 | 0.0 | 0.00 | 0.25 | 0.25 | 96 | 1012.1 |
| 20260504221524 | 7 | 0 | 0.0 | 0.0 | 0.08 | 0.25 | 0.25 | 96 | 1012.1 |
| 20260504220004 | 7 | 0 | 0.0 | 3.2 | 0.10 | 0.25 | 0.25 | 96 | 1012.2 |
| 20260504214504 | 7 | 17 | 1.6 | 4.8 | 0.10 | 0.25 | 0.25 | 95 | 1012.3 |
| 20260504213003 | 7 | 345 | 6.4 | 16.1 | 0.15 | 0.25 | 0.25 | 95 | 1012.3 |
| 20260504211503 | 7 | 226 | 1.6 | 4.8 | 0.10 | 0.18 | 0.18 | 95 | 1012.3 |
| 20260504210004 | 7 | 40 | 1.6 | 11.3 | 0.08 | 0.15 | 0.15 | 95 | 1012.3 |
| 20260504204503 | 7 | 10 | 8.0 | 17.7 | 0.08 | 0.15 | 0.15 | 94 | 1012.2 |
| 20260504203004 | 8 | 0 | 0.0 | 0.0 | 0.03 | 0.10 | 0.10 | 94 | 1012.2 |
| 20260504201504 | 8 | 0 | 0.0 | 0.0 | 0.03 | 0.08 | 0.08 | 93 | 1012.2 |
| 20260504200004 | 8 | 0 | 0.0 | 0.0 | 0.08 | 0.08 | 0.08 | 93 | 1012.1 |
| 20260504194503 | 8 | 20 | 0.0 | 3.2 | 0.08 | 0.08 | 0.08 | 92 | 1012.2 |
| 20260504193003 | 8 | 19 | 3.2 | 6.4 | 0.08 | 0.08 | 0.08 | 92 | 1012.1 |
| 20260504191503 | 8 | 15 | 3.2 | 4.8 | 0.05 | 0.05 | 0.05 | 91 | 1012.1 |
| 20260504190003 | 8 | 8 | 6.4 | 8.0 | 0.00 | 0.00 | 0.00 | 90 | 1012.0 |
| 20260504184503 | 9 | 359 | 8.0 | 16.1 | 0.00 | 0.00 | 0.00 | 89 | 1011.9 |
| 20260504183004 | 10 | 350 | 9.7 | 16.1 | 0.00 | 0.00 | 0.00 | 88 | 1011.7 |
| 20260504181503 | 10 | 323 | 6.4 | 14.5 | 0.00 | 0.00 | 0.00 | 87 | 1011.6 |
| 20260504180004 | 10 | 308 | 6.4 | 14.5 | 0.00 | 0.00 | 0.00 | 85 | 1011.6 |
| 20260504174504 | 10 | 327 | 3.2 | 4.8 | 0.00 | 0.00 | 0.00 | 87 | 1011.6 |
| 20260504173003 | 10 | 331 | 9.7 | 16.1 | 0.00 | 0.00 | 0.00 | 85 | 1011.7 |
| 20260504171503 | 10 | 327 | 20.9 | 32.2 | 0.00 | 0.00 | 0.00 | 83 | 1011.6 |
| 20260504081524 | 9 | 270 | 9.7 | 29.0 | 0.00 | 0.00 | 0.00 | 74 | 1011.6 |